Change the Weather History Date:

Monday, January 20, 2014

  Actual Average Record
Temperature  
Mean Temperature 53 °F -  
Max Temperature 66 °F - - ()
Min Temperature 40 °F - - ()
Degree Days  
Heating Degree Days 12    
Growing Degree Days 3 (Base 50)    
Moisture  
Dew Point 49 °F    
Average Humidity 77    
Maximum Humidity 100    
Minimum Humidity 38    
Precipitation  
Precipitation 0.00 in - - ()
Sea Level Pressure  
Sea Level Pressure 30.15 in    
Wind  
Wind Speed 4 mph ()    
Max Wind Speed 14 mph    
Max Gust Speed -    
Visibility 1.3 miles    
Events Fog    
T = Trace of Precipitation, MM = Missing Value Source: Averaged Metar Reports

Daily Weather History Graph

Daily Weather History Graph

Search for Another Location

Airport or City:

Trip Planner

Search our weather history database for the weather conditions in past years. The results will help you decide how hot, cold, wet, or windy it might be!

Date:

Astronomy

Jan. 20, 2014 Rise Set
Actual Time 7:16 AM IST 5:59 PM IST
Civil Twilight 6:51 AM IST 6:24 PM IST
Nautical Twilight 6:23 AM IST 6:52 PM IST
Astronomical Twilight 5:55 AM IST 7:20 PM IST
Moon 9:40 PM IST (1/20) 9:26 AM IST (1/20)
Length of Visible Light 11h 32m
Length of Day
10h 42m
Waning Gibbous, 86% of the Moon is Illuminated
Jan 20
Waning Gibbous
Jan 24
Last Quarter
Jan 31
New
Feb 7
First Quarter
Feb 15
Full

Hourly Weather History & Observations

Time (IST) Temp. Windchill Dew Point Humidity Pressure Visibility Wind Dir Wind Speed Gust Speed Precip Events Conditions
12:00 AM 50.0 °F - 50.0 °F 100% 30.21 in 0.8 mi Calm Calm - N/A   Scattered Clouds
1:00 AM 50.0 °F - 50.0 °F 100% 30.18 in 0.7 mi Calm Calm - N/A   Scattered Clouds
2:30 AM 47 °F - 47 °F 99% 30.18 in 1 mi West 2.3 mph - - Fog Patches of Fog
4:00 AM 46.4 °F - 46.4 °F 100% 30.15 in 0.2 mi Calm Calm - N/A Fog Fog
5:30 AM 45 °F - 45 °F 100% 30.17 in 0 mi Calm Calm - - Fog Heavy Fog
6:00 AM 42.8 °F - 42.8 °F 100% 30.15 in 0.1 mi Calm Calm - N/A Fog Fog
7:00 AM 41.0 °F - 41.0 °F 100% 30.18 in 0.1 mi Variable 1.2 mph - N/A Fog Fog
8:00 AM 42.8 °F - 42.8 °F 100% 30.18 in 0.3 mi Calm Calm - N/A Fog Shallow Fog
8:30 AM 43 °F - 43 °F 100% 30.22 in 0 mi Calm Calm - - Fog Heavy Fog
9:00 AM 44.6 °F 43.1 °F 44.6 °F 100% 30.21 in 0.1 mi ESE 3.5 mph - N/A Fog Fog
11:00 AM 57.2 °F - 55.4 °F 94% 30.21 in 1.2 mi ENE 5.8 mph - N/A   Mist
11:30 AM 60 °F - 52 °F 66% 30.19 in 1 mi East 9.2 mph - -   Haze
12:00 PM 60.8 °F - 51.8 °F 72% 30.18 in 1.2 mi East 12.7 mph - N/A   Haze
1:00 PM 64.4 °F - 50.0 °F 59% 30.15 in 1.6 mi ESE 8.1 mph - N/A   Haze
2:00 PM 64.4 °F - 50.0 °F 59% 30.12 in 1.9 mi East 10.4 mph - N/A   Haze
2:30 PM 66 °F - 46 °F 38% 30.10 in 1 mi East 9.2 mph - -   Haze
3:00 PM 66.2 °F - 48.2 °F 52% 30.09 in 2.5 mi East 10.4 mph - N/A   Haze
4:00 PM 66.2 °F - 48.2 °F 52% 30.09 in 2.5 mi East 9.2 mph - N/A   Haze
4:30 PM 66.2 °F - 48.2 °F 52% 30.09 in 2.5 mi ESE 9.2 mph - N/A   Haze
5:00 PM 64.4 °F - 50.0 °F 59% 30.09 in 2.5 mi East 9.2 mph - N/A   Haze
5:30 PM 64 °F - 50 °F 51% 30.08 in 2 mi East 9.2 mph - -   Haze
6:30 PM 60.8 °F - 51.8 °F 72% 30.12 in 1.9 mi East 9.2 mph - N/A   Haze
7:00 PM 60.8 °F - 51.8 °F 72% 30.12 in 1.9 mi East 9.2 mph - N/A   Haze
7:30 PM 60.8 °F - 50.0 °F 68% 30.12 in 1.9 mi East 9.2 mph - N/A   Haze
8:00 PM 60.8 °F - 51.8 °F 72% 30.12 in 1.9 mi East 12.7 mph - N/A   Haze
8:30 PM 59 °F - 52 °F 72% 30.13 in 1 mi East 9.2 mph - -   Haze
9:30 PM 59.0 °F - 53.6 °F 82% 30.15 in 1.9 mi East 13.8 mph - N/A   Haze
10:00 PM 59.0 °F - 53.6 °F 82% 30.15 in 1.9 mi East 12.7 mph - N/A   Haze
11:00 PM 57.2 °F - 51.8 °F 82% 30.12 in 1.6 mi East 11.5 mph - N/A   Scattered Clouds
11:30 PM 58 °F - 50 °F 68% 30.12 in 1 mi East 9.2 mph - -   Mist